{"data":{"norad_id":66880,"epoch":"2026-09-20T05:48:11.672928Z","epoch_age_seconds":106755,"freshness":"FRESH","line1":"1 66880U 25283C   26263.24180177  .00016481  00000+0  49772-3 0  9998","line2":"2 66880  53.1580 198.8870 0001336  89.3612 270.7544 15.34406992 45657","mean_motion":15.34406992,"eccentricity":0.0001336,"inclination_deg":53.158,"raan_deg":198.887,"arg_perigee_deg":89.3612,"mean_anomaly_deg":270.7544,"bstar":0.00049772,"rev_number":4565,"period_min":93.847330435001,"perigee_km":461.76852510886,"apogee_km":463.59639206819,"semimajor_km":6840.8194585885,"source":"CELESTRAK","updated_at":"2026-09-21T09:00:36.032331Z"}}